Time,TemperatureF,DewpointF,PressureIn,WindDirection,WindDirectionDegrees,WindSpeedMPH,WindSpeedGustMPH,Humidity,HourlyPrecipIn,Conditions,Clouds,dailyrainin,SoftwareType,DateUTC
2013-02-09 00:01:00,37.2,34.8,29.60,SE,135,3.5,3.5,91,0.00,RA,,0.00,WeatherDisplay:10.37,2013-02-09 00:01:00,
2013-02-09 00:06:00,37.2,34.8,29.60,ESE,112,2.3,3.0,91,0.00,RA,,0.00,WeatherDisplay:10.37,2013-02-09 00:06:00,
2013-02-09 00:11:00,37.2,34.8,29.60,ESE,112,2.3,4.0,91,0.00,,,0.00,WeatherDisplay:10.37,2013-02-09 00:11:00,
2013-02-09 00:16:00,37.2,34.8,29.60,SE,135,3.5,3.5,91,0.00,,,0.00,WeatherDisplay:10.37,2013-02-09 00:16:00,
2013-02-09 00:21:00,37.0,34.7,29.60,SSE,158,2.3,2.8,91,0.00,,,0.00,WeatherDisplay:10.37,2013-02-09 00:21:00,
2013-02-09 00:26:00,37.0,34.7,29.59,SE,135,4.6,4.6,91,0.00,,,0.00,WeatherDisplay:10.37,2013-02-09 00:26:00,
2013-02-09 00:31:00,37.0,34.7,29.59,SE,135,2.3,2.5,91,0.00,,,0.00,WeatherDisplay:10.37,2013-02-09 00:31:00,
2013-02-09 00:36:00,37.0,34.7,29.59,SE,135,5.8,5.8,91,0.00,,,0.00,WeatherDisplay:10.37,2013-02-09 00:36:00,
2013-02-09 00:41:00,37.0,34.7,29.59,ESE,112,4.6,4.6,91,0.00,,,0.00,WeatherDisplay:10.37,2013-02-09 00:41:00,
2013-02-09 00:46:00,36.9,34.5,29.59,SE,135,4.6,4.6,91,0.00,,,0.00,WeatherDisplay:10.37,2013-02-09 00:46:00,
2013-02-09 00:51:00,36.9,34.5,29.59,SE,135,4.6,5.4,91,0.00,,,0.00,WeatherDisplay:10.37,2013-02-09 00:51:00,
2013-02-09 00:56:00,36.9,34.8,29.59,SE,135,5.8,5.8,92,0.00,,,0.00,WeatherDisplay:10.37,2013-02-09 00:56:00,
2013-02-09 01:01:00,36.7,34.3,29.59,SE,135,3.5,3.5,91,0.00,,,0.00,WeatherDisplay:10.37,2013-02-09 01:01:00,
2013-02-09 01:06:00,36.7,34.6,29.59,SE,135,3.5,3.5,92,0.00,,,0.00,WeatherDisplay:10.37,2013-02-09 01:06:00,
2013-02-09 01:11:00,36.7,34.6,29.59,East,90,4.6,4.6,92,0.00,,,0.00,WeatherDisplay:10.37,2013-02-09 01:11:00,
2013-02-09 01:16:00,36.7,34.6,29.59,SE,135,5.8,5.8,92,0.00,,,0.00,WeatherDisplay:10.37,2013-02-09 01:16:00,
2013-02-09 01:21:00,36.7,34.6,29.59,SSE,158,3.5,3.6,92,0.00,,,0.00,WeatherDisplay:10.37,2013-02-09 01:21:00,
2013-02-09 01:26:00,36.7,34.6,29.59,ESE,112,4.6,4.6,92,0.00,,,0.00,WeatherDisplay:10.37,2013-02-09 01:26:00,
2013-02-09 01:31:00,36.7,34.6,29.59,SE,135,3.5,3.5,92,0.00,,,0.00,WeatherDisplay:10.37,2013-02-09 01:31:00,
2013-02-09 01:36:00,36.7,34.6,29.59,ESE,112,3.5,3.5,92,0.00,,,0.00,WeatherDisplay:10.37,2013-02-09 01:36:00,
2013-02-09 01:41:00,36.7,34.6,29.59,SE,135,3.5,3.5,92,0.00,,,0.00,WeatherDisplay:10.37,2013-02-09 01:41:00,
2013-02-09 01:46:00,36.7,34.6,29.59,SE,135,2.3,2.3,92,0.00,,,0.00,WeatherDisplay:10.37,2013-02-09 01:46:00,
2013-02-09 01:51:00,36.7,34.6,29.58,SE,135,3.5,3.5,92,0.00,,,0.00,WeatherDisplay:10.37,2013-02-09 01:51:00,
2013-02-09 01:56:00,36.7,34.6,29.58,SE,135,1.1,1.6,92,0.00,,,0.00,WeatherDisplay:10.37,2013-02-09 01:56:00,
2013-02-09 02:01:00,36.9,34.8,29.58,South,180,2.3,2.3,92,0.00,,,0.00,WeatherDisplay:10.37,2013-02-09 02:01:00,
2013-02-09 02:06:00,36.7,34.6,29.58,SSW,202,1.1,1.1,92,0.00,,,0.00,WeatherDisplay:10.37,2013-02-09 02:06:00,
2013-02-09 02:11:00,36.7,34.6,29.58,SSW,202,1.1,1.1,92,0.00,,,0.00,WeatherDisplay:10.37,2013-02-09 02:11:00,
2013-02-09 02:16:00,36.9,34.8,29.58,South,180,1.1,1.1,92,0.00,,,0.00,WeatherDisplay:10.37,2013-02-09 02:16:00,
2013-02-09 02:21:00,36.9,34.8,29.58,SSE,158,0.0,0.0,92,0.00,,,0.00,WeatherDisplay:10.37,2013-02-09 02:21:00,
2013-02-09 02:26:00,36.9,34.8,29.58,SSE,158,0.0,0.0,92,0.00,,,0.00,WeatherDisplay:10.37,2013-02-09 02:26:00,
2013-02-09 02:31:00,36.9,34.8,29.57,SSE,158,0.0,0.0,92,0.00,,,0.00,WeatherDisplay:10.37,2013-02-09 02:31:00,
2013-02-09 02:36:00,37.0,34.9,29.57,SSE,158,0.0,0.0,92,0.00,,,0.00,WeatherDisplay:10.37,2013-02-09 02:36:00,
2013-02-09 02:41:00,37.0,34.9,29.57,SSE,158,0.0,0.0,92,0.00,,,0.00,WeatherDisplay:10.37,2013-02-09 02:41:00,
2013-02-09 02:46:00,37.0,34.9,29.57,SSE,158,0.0,0.0,92,0.00,,,0.00,WeatherDisplay:10.37,2013-02-09 02:46:00,
2013-02-09 02:51:00,37.0,34.9,29.57,SSE,158,0.0,0.0,92,0.00,,,0.00,WeatherDisplay:10.37,2013-02-09 02:51:00,
2013-02-09 02:56:00,37.0,34.9,29.57,SE,135,1.1,1.1,92,0.00,,,0.00,WeatherDisplay:10.37,2013-02-09 02:56:00,
2013-02-09 03:01:00,37.0,34.9,29.57,SW,225,1.1,1.1,92,0.00,,,0.00,WeatherDisplay:10.37,2013-02-09 03:01:00,
2013-02-09 03:06:00,37.0,34.9,29.57,SE,135,1.1,1.1,92,0.00,,,0.00,WeatherDisplay:10.37,2013-02-09 03:06:00,
2013-02-09 03:11:00,37.0,34.9,29.57,SSE,158,1.1,1.4,92,0.00,,,0.00,WeatherDisplay:10.37,2013-02-09 03:11:00,
2013-02-09 03:16:00,37.0,34.9,29.57,SE,135,1.1,1.1,92,0.00,,,0.00,WeatherDisplay:10.37,2013-02-09 03:16:00,
2013-02-09 03:21:00,36.9,34.8,29.57,SE,135,0.0,0.0,92,0.00,,,0.00,WeatherDisplay:10.37,2013-02-09 03:21:00,
2013-02-09 03:26:00,37.0,34.9,29.56,East,90,1.1,1.1,92,0.00,,,0.00,WeatherDisplay:10.37,2013-02-09 03:26:00,
2013-02-09 03:31:00,37.0,34.9,29.56,SE,135,1.1,1.1,92,0.00,,,0.00,WeatherDisplay:10.37,2013-02-09 03:31:00,
2013-02-09 03:36:00,37.0,34.9,29.56,ESE,112,0.0,0.0,92,0.00,,,0.00,WeatherDisplay:10.37,2013-02-09 03:36:00,
2013-02-09 03:41:00,37.0,34.9,29.56,ESE,112,0.0,0.0,92,0.00,,,0.00,WeatherDisplay:10.37,2013-02-09 03:41:00,
2013-02-09 03:46:00,37.0,34.9,29.56,SSE,158,2.3,2.3,92,0.00,,,0.00,WeatherDisplay:10.37,2013-02-09 03:46:00,
2013-02-09 03:51:00,37.0,34.9,29.56,ESE,112,2.3,2.3,92,0.00,,,0.00,WeatherDisplay:10.37,2013-02-09 03:51:00,
2013-02-09 03:56:00,37.0,34.9,29.56,ESE,112,1.1,0.0,92,0.00,,,0.00,WeatherDisplay:10.37,2013-02-09 03:56:00,
2013-02-09 04:01:00,37.0,34.9,29.56,SSE,158,1.1,1.6,92,0.00,,,0.00,WeatherDisplay:10.37,2013-02-09 04:01:00,
2013-02-09 04:06:00,36.9,34.8,29.56,ESE,112,1.1,1.1,92,0.00,,,0.00,WeatherDisplay:10.37,2013-02-09 04:06:00,
2013-02-09 04:11:00,37.0,34.9,29.56,SSE,158,0.0,0.0,92,0.00,,,0.00,WeatherDisplay:10.37,2013-02-09 04:11:00,
2013-02-09 04:16:00,36.9,34.8,29.55,SSE,158,2.3,2.5,92,0.00,,,0.00,WeatherDisplay:10.37,2013-02-09 04:16:00,
2013-02-09 04:21:00,36.9,34.8,29.55,East,90,0.0,0.0,92,0.00,,,0.00,WeatherDisplay:10.37,2013-02-09 04:21:00,
2013-02-09 04:26:00,36.9,34.8,29.55,ESE,112,0.0,0.0,92,0.00,,,0.00,WeatherDisplay:10.37,2013-02-09 04:26:00,
2013-02-09 04:31:00,36.9,34.8,29.55,ESE,112,0.0,0.0,92,0.00,,,0.00,WeatherDisplay:10.37,2013-02-09 04:31:00,
2013-02-09 04:36:00,36.7,34.6,29.55,SSE,158,2.3,2.3,92,0.00,,,0.00,WeatherDisplay:10.37,2013-02-09 04:36:00,
2013-02-09 04:41:00,36.7,34.6,29.55,SE,135,0.0,2.0,92,0.00,,,0.00,WeatherDisplay:10.37,2013-02-09 04:41:00,
2013-02-09 04:46:00,36.7,34.6,29.55,SE,135,2.3,2.3,92,0.00,,,0.00,WeatherDisplay:10.37,2013-02-09 04:46:00,
2013-02-09 04:51:00,36.7,34.6,29.55,SSE,158,2.3,2.3,92,0.00,,,0.00,WeatherDisplay:10.37,2013-02-09 04:51:00,
2013-02-09 04:56:00,36.7,34.6,29.55,East,90,2.3,2.3,92,0.00,,,0.00,WeatherDisplay:10.37,2013-02-09 04:56:00,
2013-02-09 05:00:00,36.7,34.6,29.55,ESE,112,2.3,2.3,92,0.00,,,0.00,WeatherDisplay:10.37,2013-02-09 05:00:00,
2013-02-09 05:01:00,36.7,34.6,29.55,ESE,112,2.3,2.3,92,0.00,,,0.00,WeatherDisplay:10.37,2013-02-09 05:01:00,
2013-02-09 05:06:00,36.7,34.6,29.55,SE,135,0.9,0.9,92,0.00,,,0.00,WeatherDisplay:10.37,2013-02-09 05:06:00,
2013-02-09 05:11:00,36.7,34.6,29.55,ESE,112,1.1,1.3,92,0.00,,,0.00,WeatherDisplay:10.37,2013-02-09 05:11:00,
2013-02-09 05:16:00,36.7,34.6,29.55,SE,135,2.3,2.3,92,0.00,,,0.00,WeatherDisplay:10.37,2013-02-09 05:16:00,
2013-02-09 05:21:00,36.7,34.6,29.55,SE,135,3.5,3.5,92,0.00,,,0.00,WeatherDisplay:10.37,2013-02-09 05:21:00,
2013-02-09 05:26:00,36.7,34.6,29.55,ESE,112,3.5,3.5,92,0.00,,,0.00,WeatherDisplay:10.37,2013-02-09 05:26:00,
2013-02-09 05:31:00,36.5,34.4,29.55,SE,135,4.6,4.6,92,0.00,,,0.00,WeatherDisplay:10.37,2013-02-09 05:31:00,
2013-02-09 05:36:00,36.5,34.4,29.54,ESE,112,3.5,3.9,92,0.00,,,0.00,WeatherDisplay:10.37,2013-02-09 05:36:00,
2013-02-09 05:41:00,36.3,34.2,29.54,ESE,112,4.6,4.6,92,0.00,,,0.00,WeatherDisplay:10.37,2013-02-09 05:41:00,
2013-02-09 05:46:00,36.3,34.2,29.54,ESE,112,3.5,3.5,92,0.00,,,0.00,WeatherDisplay:10.37,2013-02-09 05:46:00,
2013-02-09 05:51:00,36.3,34.2,29.54,ESE,112,3.5,3.5,92,0.00,,,0.00,WeatherDisplay:10.37,2013-02-09 05:51:00,
2013-02-09 05:56:00,36.3,34.2,29.54,SE,135,4.7,4.7,92,0.00,,,0.00,WeatherDisplay:10.37,2013-02-09 05:56:00,
2013-02-09 06:01:00,36.3,34.2,29.54,SE,135,2.3,2.3,92,0.00,,,0.00,WeatherDisplay:10.37,2013-02-09 06:01:00,
2013-02-09 06:06:00,36.3,34.2,29.55,East,90,4.6,4.6,92,0.00,,,0.00,WeatherDisplay:10.37,2013-02-09 06:06:00,
2013-02-09 06:11:00,36.3,34.2,29.54,ESE,112,3.5,3.6,92,0.00,,,0.00,WeatherDisplay:10.37,2013-02-09 06:11:00,
2013-02-09 06:16:00,36.3,34.2,29.54,SE,135,4.0,4.0,92,0.00,,,0.00,WeatherDisplay:10.37,2013-02-09 06:16:00,
2013-02-09 06:21:00,36.3,34.2,29.54,SE,135,3.5,3.5,92,0.00,,,0.00,WeatherDisplay:10.37,2013-02-09 06:21:00,
2013-02-09 06:26:00,36.3,34.2,29.54,ESE,112,5.1,5.1,92,0.00,,,0.00,WeatherDisplay:10.37,2013-02-09 06:26:00,
2013-02-09 06:31:00,36.3,34.2,29.54,SSE,158,3.5,3.9,92,0.00,,,0.00,WeatherDisplay:10.37,2013-02-09 06:31:00,
2013-02-09 06:36:00,36.3,34.2,29.54,SE,135,3.5,3.8,92,0.00,,,0.00,WeatherDisplay:10.37,2013-02-09 06:36:00,
2013-02-09 06:41:00,36.3,34.2,29.54,SE,135,4.6,4.6,92,0.00,,,0.00,WeatherDisplay:10.37,2013-02-09 06:41:00,
2013-02-09 06:46:00,36.3,34.2,29.54,SE,135,4.5,4.5,92,0.00,,,0.00,WeatherDisplay:10.37,2013-02-09 06:46:00,
2013-02-09 06:51:00,36.3,34.2,29.54,SE,135,4.6,4.6,92,0.00,,,0.00,WeatherDisplay:10.37,2013-02-09 06:51:00,
2013-02-09 06:56:00,36.3,34.2,29.53,SE,135,3.6,3.8,92,0.00,,,0.00,WeatherDisplay:10.37,2013-02-09 06:56:00,
2013-02-09 07:01:00,36.3,34.2,29.53,ESE,112,4.6,4.9,92,0.00,,,0.00,WeatherDisplay:10.37,2013-02-09 07:01:00,
2013-02-09 07:06:00,36.3,34.2,29.53,SE,135,3.6,3.6,92,0.00,,,0.00,WeatherDisplay:10.37,2013-02-09 07:06:00,
2013-02-09 07:11:00,36.3,34.2,29.53,East,90,3.5,3.5,92,0.00,,,0.00,WeatherDisplay:10.37,2013-02-09 07:11:00,
2013-02-09 07:16:00,36.3,34.2,29.53,ESE,112,2.5,2.5,92,0.00,,,0.00,WeatherDisplay:10.37,2013-02-09 07:16:00,
2013-02-09 07:21:00,36.3,34.2,29.53,ESE,112,3.5,3.5,92,0.00,,,0.00,WeatherDisplay:10.37,2013-02-09 07:21:00,
2013-02-09 07:26:00,36.5,34.4,29.53,SE,135,0.0,0.0,92,0.00,,,0.00,WeatherDisplay:10.37,2013-02-09 07:26:00,
2013-02-09 07:31:00,36.5,34.4,29.53,ESE,112,1.1,1.3,92,0.00,,,0.00,WeatherDisplay:10.37,2013-02-09 07:31:00,
2013-02-09 07:36:00,36.5,34.4,29.53,SE,135,2.3,2.3,92,0.00,,,0.00,WeatherDisplay:10.37,2013-02-09 07:36:00,
2013-02-09 07:41:00,36.5,34.4,29.53,ESE,112,2.3,2.3,92,0.00,,,0.00,WeatherDisplay:10.37,2013-02-09 07:41:00,
2013-02-09 07:46:00,36.5,34.4,29.54,ESE,112,4.6,4.6,92,0.00,,,0.00,WeatherDisplay:10.37,2013-02-09 07:46:00,
2013-02-09 07:51:00,36.5,34.4,29.54,ESE,112,3.5,3.5,92,0.00,,,0.00,WeatherDisplay:10.37,2013-02-09 07:51:00,
2013-02-09 07:56:00,36.5,34.4,29.54,SE,135,3.5,3.5,92,0.00,,,0.00,WeatherDisplay:10.37,2013-02-09 07:56:00,
2013-02-09 08:01:00,36.7,34.6,29.54,East,90,3.5,3.5,92,0.00,,,0.00,WeatherDisplay:10.37,2013-02-09 08:01:00,
2013-02-09 08:06:00,36.5,34.4,29.54,ENE,68,1.1,1.5,92,0.00,,,0.00,WeatherDisplay:10.37,2013-02-09 08:06:00,
2013-02-09 08:11:00,36.7,34.6,29.54,NE,45,0.0,0.0,92,0.00,,,0.00,WeatherDisplay:10.37,2013-02-09 08:11:00,
2013-02-09 08:16:00,36.7,34.6,29.54,ESE,112,0.0,0.0,92,0.00,,,0.00,WeatherDisplay:10.37,2013-02-09 08:16:00,
2013-02-09 08:21:00,36.7,34.8,29.55,ENE,68,1.1,1.1,93,0.00,,,0.00,WeatherDisplay:10.37,2013-02-09 08:21:00,
2013-02-09 08:26:00,36.7,34.8,29.55,ENE,68,2.3,2.3,93,0.00,,,0.00,WeatherDisplay:10.37,2013-02-09 08:26:00,
2013-02-09 08:31:00,36.7,34.8,29.55,ESE,112,1.1,1.1,93,0.00,,,0.00,WeatherDisplay:10.37,2013-02-09 08:31:00,
2013-02-09 08:36:00,36.7,34.6,29.55,East,90,1.1,1.2,92,0.00,,,0.00,WeatherDisplay:10.37,2013-02-09 08:36:00,
2013-02-09 08:41:00,36.9,34.8,29.55,SE,135,1.1,1.1,92,0.00,,,0.00,WeatherDisplay:10.37,2013-02-09 08:41:00,
2013-02-09 08:46:00,37.0,35.2,29.55,ESE,112,2.7,2.7,93,0.00,,,0.00,WeatherDisplay:10.37,2013-02-09 08:46:00,
2013-02-09 08:51:00,37.0,35.2,29.55,East,90,2.3,2.3,93,0.00,,,0.00,WeatherDisplay:10.37,2013-02-09 08:51:00,
2013-02-09 08:56:00,36.9,35.0,29.54,East,90,3.1,3.1,93,0.00,,,0.00,WeatherDisplay:10.37,2013-02-09 08:56:00,
2013-02-09 09:01:00,36.9,35.0,29.54,ESE,112,2.3,2.3,93,0.00,,,0.00,WeatherDisplay:10.37,2013-02-09 09:01:00,
2013-02-09 09:06:00,37.0,35.2,29.54,ESE,112,1.1,1.1,93,0.00,,,0.00,WeatherDisplay:10.37,2013-02-09 09:06:00,
2013-02-09 09:11:00,37.0,35.2,29.53,East,90,1.1,1.1,93,0.00,,,0.00,WeatherDisplay:10.37,2013-02-09 09:11:00,
2013-02-09 09:16:00,37.0,35.2,29.53,East,90,2.3,2.3,93,0.00,,,0.00,WeatherDisplay:10.37,2013-02-09 09:16:00,
2013-02-09 09:21:00,37.0,35.2,29.54,North,0,0.0,0.0,93,0.00,,,0.00,WeatherDisplay:10.37,2013-02-09 09:21:00,
2013-02-09 09:26:00,37.2,35.4,29.54,NNE,22,2.0,2.0,93,0.00,,,0.00,WeatherDisplay:10.37,2013-02-09 09:26:00,
2013-02-09 09:31:00,37.2,35.4,29.54,ENE,68,3.5,3.5,93,0.00,,,0.00,WeatherDisplay:10.37,2013-02-09 09:31:00,
2013-02-09 09:36:00,37.2,35.4,29.54,ENE,68,2.3,2.3,93,0.00,,,0.00,WeatherDisplay:10.37,2013-02-09 09:36:00,
2013-02-09 09:41:00,37.4,35.6,29.54,NE,45,1.1,1.1,93,0.00,,,0.00,WeatherDisplay:10.37,2013-02-09 09:41:00,
2013-02-09 09:46:00,37.6,35.7,29.53,NNE,22,0.0,0.0,93,0.00,,,0.00,WeatherDisplay:10.37,2013-02-09 09:46:00,
2013-02-09 09:51:00,37.6,35.7,29.53,NE,45,2.3,2.3,93,0.00,,,0.00,WeatherDisplay:10.37,2013-02-09 09:51:00,
2013-02-09 09:56:00,37.8,35.9,29.53,NE,45,2.3,2.3,93,0.00,,,0.00,WeatherDisplay:10.37,2013-02-09 09:56:00,
2013-02-09 10:01:00,37.9,36.1,29.53,NE,45,2.3,2.3,93,0.00,,,0.00,WeatherDisplay:10.37,2013-02-09 10:01:00,
2013-02-09 10:06:00,37.9,36.1,29.53,ENE,68,3.5,3.5,93,0.00,,,0.00,WeatherDisplay:10.37,2013-02-09 10:06:00,
2013-02-09 10:11:00,37.9,36.1,29.53,East,90,2.3,2.3,93,0.00,,,0.00,WeatherDisplay:10.37,2013-02-09 10:11:00,
2013-02-09 10:16:00,37.9,36.1,29.53,NNE,22,2.3,2.3,93,0.00,,,0.00,WeatherDisplay:10.37,2013-02-09 10:16:00,
2013-02-09 10:21:00,38.1,36.3,29.54,NE,45,2.3,2.3,93,0.00,,,0.00,WeatherDisplay:10.37,2013-02-09 10:21:00,
2013-02-09 10:26:00,38.3,36.5,29.54,NE,45,2.9,2.9,93,0.00,,,0.00,WeatherDisplay:10.37,2013-02-09 10:26:00,
2013-02-09 10:31:00,38.3,36.5,29.54,ENE,68,3.5,3.5,93,0.00,,,0.00,WeatherDisplay:10.37,2013-02-09 10:31:00,
2013-02-09 10:36:00,38.3,36.2,29.54,ENE,68,0.0,0.0,92,0.00,,,0.00,WeatherDisplay:10.37,2013-02-09 10:36:00,
2013-02-09 10:41:00,38.3,36.2,29.54,ESE,112,0.0,0.0,92,0.00,,,0.00,WeatherDisplay:10.37,2013-02-09 10:41:00,
2013-02-09 10:46:00,38.3,36.2,29.54,East,90,0.0,0.0,92,0.00,,,0.00,WeatherDisplay:10.37,2013-02-09 10:46:00,
2013-02-09 10:51:00,38.5,36.4,29.54,NE,45,1.1,1.1,92,0.00,,,0.00,WeatherDisplay:10.37,2013-02-09 10:51:00,
2013-02-09 10:56:00,38.5,36.4,29.54,ENE,68,2.9,2.9,92,0.00,,,0.00,WeatherDisplay:10.37,2013-02-09 10:56:00,
2013-02-09 11:01:00,38.8,36.7,29.54,ENE,68,2.3,2.3,92,0.00,,,0.00,WeatherDisplay:10.37,2013-02-09 11:01:00,
2013-02-09 11:06:00,38.8,37.0,29.53,NE,45,0.0,0.0,93,0.00,,,0.00,WeatherDisplay:10.37,2013-02-09 11:06:00,
2013-02-09 11:11:00,39.0,36.9,29.53,NNE,22,2.3,2.3,92,0.00,,,0.00,WeatherDisplay:10.37,2013-02-09 11:11:00,
2013-02-09 11:16:00,39.0,36.9,29.53,NE,45,1.1,2.2,92,0.00,,,0.00,WeatherDisplay:10.37,2013-02-09 11:16:00,
2013-02-09 11:21:00,39.0,36.9,29.53,NE,45,3.5,3.5,92,0.00,,,0.00,WeatherDisplay:10.37,2013-02-09 11:21:00,
2013-02-09 11:26:00,39.0,36.9,29.53,ENE,68,2.9,2.9,92,0.00,,,0.00,WeatherDisplay:10.37,2013-02-09 11:26:00,
2013-02-09 11:31:00,39.0,36.9,29.53,ENE,68,2.3,2.3,92,0.00,,,0.00,WeatherDisplay:10.37,2013-02-09 11:31:00,
2013-02-09 11:36:00,39.2,37.1,29.53,NNE,22,2.5,2.5,92,0.00,,,0.00,WeatherDisplay:10.37,2013-02-09 11:36:00,
2013-02-09 11:41:00,39.4,37.2,29.53,NE,45,2.3,2.3,92,0.00,,,0.00,WeatherDisplay:10.37,2013-02-09 11:41:00,
2013-02-09 11:46:00,39.4,37.2,29.53,NE,45,2.5,2.5,92,0.00,,,0.00,WeatherDisplay:10.37,2013-02-09 11:46:00,
2013-02-09 11:51:00,39.4,37.2,29.53,ENE,68,2.3,2.3,92,0.00,,,0.00,WeatherDisplay:10.37,2013-02-09 11:51:00,
2013-02-09 11:56:00,39.6,37.4,29.53,NE,45,1.6,1.6,92,0.00,,,0.00,WeatherDisplay:10.37,2013-02-09 11:56:00,
2013-02-09 12:01:00,39.6,37.4,29.53,NE,45,3.5,3.5,92,0.00,,,0.00,WeatherDisplay:10.37,2013-02-09 12:01:00,
2013-02-09 12:06:00,39.4,37.2,29.53,NNE,22,2.3,2.3,92,0.00,,,0.00,WeatherDisplay:10.37,2013-02-09 12:06:00,
2013-02-09 12:11:00,39.4,37.2,29.53,NE,45,2.3,2.3,92,0.00,,,0.00,WeatherDisplay:10.37,2013-02-09 12:11:00,
2013-02-09 12:16:00,39.4,37.2,29.53,NNE,22,4.6,4.6,92,0.00,,,0.00,WeatherDisplay:10.37,2013-02-09 12:16:00,
2013-02-09 12:21:00,39.4,37.2,29.52,East,90,3.5,3.5,92,0.00,,,0.00,WeatherDisplay:10.37,2013-02-09 12:21:00,
2013-02-09 12:26:00,39.4,37.2,29.52,North,0,2.5,2.5,92,0.00,,,0.00,WeatherDisplay:10.37,2013-02-09 12:26:00,
2013-02-09 12:31:00,39.4,37.2,29.52,NE,45,2.3,2.3,92,0.00,,,0.00,WeatherDisplay:10.37,2013-02-09 12:31:00,
2013-02-09 12:36:00,39.4,37.2,29.52,NE,45,1.6,1.6,92,0.00,,,0.00,WeatherDisplay:10.37,2013-02-09 12:36:00,
2013-02-09 12:41:00,39.4,37.2,29.52,ENE,68,3.5,3.5,92,0.00,,,0.00,WeatherDisplay:10.37,2013-02-09 12:41:00,
2013-02-09 12:46:00,39.4,37.2,29.52,NNE,22,3.5,3.5,92,0.00,,,0.00,WeatherDisplay:10.37,2013-02-09 12:46:00,
2013-02-09 12:51:00,39.4,37.2,29.52,ENE,68,1.1,1.2,92,0.00,,,0.00,WeatherDisplay:10.37,2013-02-09 12:51:00,
2013-02-09 12:56:00,39.6,37.4,29.51,ESE,112,1.3,1.5,92,0.00,,,0.00,WeatherDisplay:10.37,2013-02-09 12:56:00,
2013-02-09 13:01:00,39.7,37.6,29.51,NE,45,1.1,1.1,92,0.00,,,0.00,WeatherDisplay:10.37,2013-02-09 13:01:00,
2013-02-09 13:06:00,39.7,37.6,29.51,East,90,2.3,2.3,92,0.00,,,0.00,WeatherDisplay:10.37,2013-02-09 13:06:00,
2013-02-09 13:11:00,39.7,37.6,29.50,ENE,68,1.1,1.4,92,0.00,,,0.00,WeatherDisplay:10.37,2013-02-09 13:11:00,
2013-02-09 13:16:00,39.9,37.8,29.50,ESE,112,1.6,1.6,92,0.00,,,0.00,WeatherDisplay:10.37,2013-02-09 13:16:00,
2013-02-09 13:21:00,39.9,37.8,29.50,East,90,0.0,1.3,92,0.00,,,0.00,WeatherDisplay:10.37,2013-02-09 13:21:00,
2013-02-09 13:26:00,39.9,37.8,29.50,ENE,68,4.6,4.6,92,0.00,,,0.00,WeatherDisplay:10.37,2013-02-09 13:26:00,
2013-02-09 13:31:00,39.9,37.8,29.50,NE,45,3.5,5.1,92,0.00,,,0.00,WeatherDisplay:10.37,2013-02-09 13:31:00,
2013-02-09 13:36:00,39.9,37.8,29.50,North,0,2.7,2.7,92,0.00,,,0.00,WeatherDisplay:10.37,2013-02-09 13:36:00,
2013-02-09 13:41:00,39.9,37.8,29.50,NNE,22,3.5,3.5,92,0.00,,,0.00,WeatherDisplay:10.37,2013-02-09 13:41:00,
2013-02-09 13:46:00,39.9,37.8,29.50,NE,45,2.3,2.3,92,0.00,,,0.00,WeatherDisplay:10.37,2013-02-09 13:46:00,
2013-02-09 13:51:00,39.9,37.8,29.50,NE,45,2.3,3.4,92,0.00,,,0.00,WeatherDisplay:10.37,2013-02-09 13:51:00,
2013-02-09 13:56:00,39.9,37.8,29.49,NNE,22,2.3,2.3,92,0.00,,,0.00,WeatherDisplay:10.37,2013-02-09 13:56:00,
2013-02-09 14:01:00,39.9,37.8,29.49,ENE,68,2.3,2.3,92,0.00,,,0.00,WeatherDisplay:10.37,2013-02-09 14:01:00,
2013-02-09 14:06:00,39.9,37.8,29.49,NNE,22,1.1,1.6,92,0.00,,,0.00,WeatherDisplay:10.37,2013-02-09 14:06:00,
2013-02-09 14:11:00,39.9,37.8,29.49,NNE,22,2.3,3.5,92,0.00,,,0.00,WeatherDisplay:10.37,2013-02-09 14:11:00,
2013-02-09 14:16:00,39.9,37.8,29.48,NNE,22,3.5,3.5,92,0.00,,,0.00,WeatherDisplay:10.37,2013-02-09 14:16:00,
2013-02-09 14:21:00,39.9,37.8,29.48,NNE,22,3.5,3.5,92,0.00,,,0.00,WeatherDisplay:10.37,2013-02-09 14:21:00,
2013-02-09 14:26:00,39.9,37.8,29.48,ENE,68,1.1,1.3,92,0.00,,,0.00,WeatherDisplay:10.37,2013-02-09 14:26:00,
2013-02-09 14:31:00,39.9,37.8,29.48,NE,45,2.3,2.3,92,0.00,,,0.00,WeatherDisplay:10.37,2013-02-09 14:31:00,
2013-02-09 14:36:00,40.1,38.0,29.48,NE,45,2.3,0.0,92,0.00,,,0.00,WeatherDisplay:10.37,2013-02-09 14:36:00,
2013-02-09 14:41:00,40.1,38.0,29.47,North,0,2.3,2.3,92,0.00,,,0.00,WeatherDisplay:10.37,2013-02-09 14:41:00,
2013-02-09 14:46:00,39.9,37.8,29.47,ENE,68,1.1,1.1,92,0.00,,,0.00,WeatherDisplay:10.37,2013-02-09 14:46:00,
2013-02-09 14:51:00,39.9,37.8,29.47,NNE,22,2.3,2.3,92,0.00,,,0.00,WeatherDisplay:10.37,2013-02-09 14:51:00,
2013-02-09 14:56:00,39.9,37.8,29.47,NNE,22,3.5,3.7,92,0.00,,,0.00,WeatherDisplay:10.37,2013-02-09 14:56:00,
2013-02-09 15:01:00,39.9,37.5,29.47,NE,45,1.1,1.1,91,0.00,,,0.00,WeatherDisplay:10.37,2013-02-09 15:01:00,
2013-02-09 15:06:00,39.9,37.5,29.47,NE,45,1.1,1.1,91,0.00,,,0.00,WeatherDisplay:10.37,2013-02-09 15:06:00,
2013-02-09 15:11:00,39.9,37.5,29.47,NE,45,0.0,1.3,91,0.00,,,0.00,WeatherDisplay:10.37,2013-02-09 15:11:00,
2013-02-09 15:16:00,39.9,37.5,29.46,NE,45,2.3,2.3,91,0.00,,,0.00,WeatherDisplay:10.37,2013-02-09 15:16:00,
2013-02-09 15:21:00,39.9,37.5,29.46,East,90,0.0,0.0,91,0.00,,,0.00,WeatherDisplay:10.37,2013-02-09 15:21:00,
2013-02-09 15:26:00,39.9,37.5,29.46,East,90,0.0,0.0,91,0.00,,,0.00,WeatherDisplay:10.37,2013-02-09 15:26:00,
2013-02-09 15:31:00,39.9,37.5,29.46,ENE,68,0.0,0.0,91,0.00,,,0.00,WeatherDisplay:10.37,2013-02-09 15:31:00,
2013-02-09 15:36:00,39.9,37.5,29.46,ENE,68,0.0,0.0,91,0.00,,,0.00,WeatherDisplay:10.37,2013-02-09 15:36:00,
2013-02-09 15:41:00,39.9,37.5,29.46,ENE,68,1.1,1.1,91,0.00,,,0.00,WeatherDisplay:10.37,2013-02-09 15:41:00,
2013-02-09 15:46:00,39.9,37.5,29.46,NNE,22,3.5,3.5,91,0.00,,,0.00,WeatherDisplay:10.37,2013-02-09 15:46:00,
2013-02-09 15:51:00,39.9,37.5,29.46,ENE,68,3.5,3.5,91,0.00,,,0.00,WeatherDisplay:10.37,2013-02-09 15:51:00,
2013-02-09 15:56:00,39.7,37.3,29.45,ENE,68,3.5,3.5,91,0.00,,,0.00,WeatherDisplay:10.37,2013-02-09 15:56:00,
2013-02-09 16:01:00,39.7,37.3,29.45,ESE,112,2.3,2.3,91,0.00,,,0.00,WeatherDisplay:10.37,2013-02-09 16:01:00,
2013-02-09 16:06:00,39.7,37.3,29.45,NE,45,3.5,3.5,91,0.00,,,0.00,WeatherDisplay:10.37,2013-02-09 16:06:00,
2013-02-09 16:11:00,39.7,37.3,29.45,NE,45,3.5,3.5,91,0.00,,,0.00,WeatherDisplay:10.37,2013-02-09 16:11:00,
2013-02-09 16:16:00,39.6,37.2,29.45,NE,45,3.5,3.5,91,0.00,,,0.00,WeatherDisplay:10.37,2013-02-09 16:16:00,
2013-02-09 16:21:00,39.6,37.2,29.45,NNE,22,0.0,1.1,91,0.00,,,0.00,WeatherDisplay:10.37,2013-02-09 16:21:00,
2013-02-09 16:26:00,39.4,37.0,29.45,NNE,22,1.1,1.1,91,0.00,,,0.00,WeatherDisplay:10.37,2013-02-09 16:26:00,
2013-02-09 16:31:00,39.4,37.0,29.45,NE,45,0.0,2.5,91,0.00,,,0.00,WeatherDisplay:10.37,2013-02-09 16:31:00,
2013-02-09 16:36:00,39.4,37.0,29.45,NE,45,0.0,0.9,91,0.00,,,0.00,WeatherDisplay:10.37,2013-02-09 16:36:00,
2013-02-09 16:41:00,39.4,37.0,29.44,ENE,68,2.3,2.8,91,0.00,,,0.00,WeatherDisplay:10.37,2013-02-09 16:41:00,
2013-02-09 16:46:00,39.4,37.0,29.44,NE,45,3.5,3.5,91,0.00,,,0.00,WeatherDisplay:10.37,2013-02-09 16:46:00,
2013-02-09 16:51:00,39.4,37.0,29.44,NE,45,2.3,2.4,91,0.00,,,0.00,WeatherDisplay:10.37,2013-02-09 16:51:00,
2013-02-09 16:56:00,39.4,37.0,29.44,East,90,3.5,3.5,91,0.00,,,0.00,WeatherDisplay:10.37,2013-02-09 16:56:00,
2013-02-09 17:01:00,39.4,37.2,29.44,NNE,22,3.5,3.5,92,0.00,,,0.00,WeatherDisplay:10.37,2013-02-09 17:01:00,
2013-02-09 17:06:00,39.4,37.2,29.44,NNE,22,3.5,3.5,92,0.00,,,0.00,WeatherDisplay:10.37,2013-02-09 17:06:00,
2013-02-09 17:11:00,39.0,36.9,29.44,East,90,1.1,3.1,92,0.00,,,0.00,WeatherDisplay:10.37,2013-02-09 17:11:00,
2013-02-09 17:16:00,39.0,36.9,29.44,NNE,22,4.6,4.6,92,0.00,,,0.00,WeatherDisplay:10.37,2013-02-09 17:16:00,
2013-02-09 17:21:00,39.0,36.9,29.44,East,90,1.1,1.1,92,0.00,,,0.00,WeatherDisplay:10.37,2013-02-09 17:21:00,
2013-02-09 17:26:00,39.0,36.9,29.43,ENE,68,2.3,2.6,92,0.00,,,0.00,WeatherDisplay:10.37,2013-02-09 17:26:00,
2013-02-09 17:31:00,39.0,36.9,29.43,ENE,68,1.1,2.4,92,0.00,,,0.00,WeatherDisplay:10.37,2013-02-09 17:31:00,
2013-02-09 17:36:00,39.0,36.9,29.44,NE,45,2.3,2.3,92,0.00,,,0.00,WeatherDisplay:10.37,2013-02-09 17:36:00,
2013-02-09 17:41:00,39.0,36.9,29.44,NE,45,1.1,1.1,92,0.00,,,0.00,WeatherDisplay:10.37,2013-02-09 17:41:00,
2013-02-09 17:46:00,39.0,36.9,29.44,NE,45,1.1,2.8,92,0.00,,,0.00,WeatherDisplay:10.37,2013-02-09 17:46:00,
2013-02-09 17:51:00,39.0,36.9,29.42,East,90,2.3,2.3,92,0.00,,,0.00,WeatherDisplay:10.37,2013-02-09 17:51:00,
2013-02-09 17:56:00,38.8,36.7,29.42,NE,45,2.3,2.3,92,0.00,,,0.00,WeatherDisplay:10.37,2013-02-09 17:56:00,
2013-02-09 18:01:00,38.8,36.7,29.42,ENE,68,0.0,2.2,92,0.00,,,0.00,WeatherDisplay:10.37,2013-02-09 18:01:00,
2013-02-09 18:06:00,38.8,36.4,29.42,ENE,68,1.1,1.1,91,0.00,,,0.00,WeatherDisplay:10.37,2013-02-09 18:06:00,
2013-02-09 18:11:00,38.8,36.4,29.42,East,90,1.1,1.3,91,0.00,,,0.00,WeatherDisplay:10.37,2013-02-09 18:11:00,
2013-02-09 18:16:00,38.8,36.4,29.42,East,90,1.1,1.5,91,0.00,,,0.00,WeatherDisplay:10.37,2013-02-09 18:16:00,
2013-02-09 18:21:00,38.8,36.4,29.42,NE,45,0.0,3.0,91,0.00,,,0.00,WeatherDisplay:10.37,2013-02-09 18:21:00,
2013-02-09 18:26:00,38.8,36.4,29.41,ENE,68,3.5,3.5,91,0.00,,,0.00,WeatherDisplay:10.37,2013-02-09 18:26:00,
2013-02-09 18:31:00,38.8,36.4,29.41,NE,45,1.1,2.3,91,0.00,,,0.00,WeatherDisplay:10.37,2013-02-09 18:31:00,
2013-02-09 18:36:00,38.8,36.4,29.41,ENE,68,0.0,1.3,91,0.00,,,0.00,WeatherDisplay:10.37,2013-02-09 18:36:00,
2013-02-09 18:41:00,38.8,36.4,29.41,NNE,22,2.3,2.7,91,0.00,,,0.00,WeatherDisplay:10.37,2013-02-09 18:41:00,
2013-02-09 18:46:00,38.8,36.4,29.41,East,90,2.3,2.3,91,0.00,,,0.00,WeatherDisplay:10.37,2013-02-09 18:46:00,
2013-02-09 18:51:00,38.8,36.4,29.41,ENE,68,6.9,6.9,91,0.00,,,0.00,WeatherDisplay:10.37,2013-02-09 18:51:00,
2013-02-09 18:56:00,38.5,36.1,29.41,NE,45,3.5,3.5,91,0.00,,,0.00,WeatherDisplay:10.37,2013-02-09 18:56:00,
2013-02-09 19:01:00,38.5,36.1,29.41,ENE,68,2.3,2.3,91,0.00,,,0.00,WeatherDisplay:10.37,2013-02-09 19:01:00,
2013-02-09 19:06:00,38.5,36.1,29.41,ENE,68,2.3,2.3,91,0.00,,,0.00,WeatherDisplay:10.37,2013-02-09 19:06:00,
2013-02-09 19:11:00,38.5,36.1,29.40,NE,45,2.3,2.3,91,0.00,,,0.00,WeatherDisplay:10.37,2013-02-09 19:11:00,
2013-02-09 19:16:00,38.5,36.1,29.39,ENE,68,3.5,3.5,91,0.00,,,0.00,WeatherDisplay:10.37,2013-02-09 19:16:00,
2013-02-09 19:21:00,38.5,36.1,29.39,NNE,22,2.3,2.3,91,0.00,,,0.00,WeatherDisplay:10.37,2013-02-09 19:21:00,
2013-02-09 19:26:00,38.5,36.1,29.39,East,90,2.3,2.3,91,0.00,,,0.00,WeatherDisplay:10.37,2013-02-09 19:26:00,
2013-02-09 19:31:00,38.3,35.9,29.39,NE,45,0.0,1.0,91,0.00,,,0.00,WeatherDisplay:10.37,2013-02-09 19:31:00,
2013-02-09 19:36:00,38.1,35.7,29.38,NNE,22,2.3,2.3,91,0.00,,,0.00,WeatherDisplay:10.37,2013-02-09 19:36:00,
2013-02-09 19:41:00,38.1,35.7,29.38,ENE,68,2.3,2.3,91,0.00,,,0.00,WeatherDisplay:10.37,2013-02-09 19:41:00,
2013-02-09 19:46:00,38.1,35.7,29.38,NNE,22,3.5,3.5,91,0.00,,,0.00,WeatherDisplay:10.37,2013-02-09 19:46:00,
2013-02-09 19:51:00,38.1,35.7,29.38,ENE,68,1.1,1.1,91,0.00,,,0.00,WeatherDisplay:10.37,2013-02-09 19:51:00,
2013-02-09 19:56:00,38.1,35.7,29.38,East,90,4.6,4.6,91,0.00,,,0.00,WeatherDisplay:10.37,2013-02-09 19:56:00,
2013-02-09 20:01:00,37.9,35.5,29.38,East,90,3.5,4.4,91,0.00,,,0.00,WeatherDisplay:10.37,2013-02-09 20:01:00,
2013-02-09 20:06:00,37.9,35.5,29.38,ENE,68,2.3,2.3,91,0.00,,,0.00,WeatherDisplay:10.37,2013-02-09 20:06:00,
2013-02-09 20:11:00,37.9,35.5,29.38,ENE,68,2.3,2.3,91,0.00,,,0.00,WeatherDisplay:10.37,2013-02-09 20:11:00,
2013-02-09 20:16:00,37.9,35.5,29.38,NE,45,2.3,2.3,91,0.00,,,0.00,WeatherDisplay:10.37,2013-02-09 20:16:00,
2013-02-09 20:21:00,37.9,35.5,29.38,NE,45,0.0,2.6,91,0.00,,,0.00,WeatherDisplay:10.37,2013-02-09 20:21:00,
2013-02-09 20:26:00,37.9,35.5,29.38,ENE,68,0.0,0.0,91,0.00,,,0.00,WeatherDisplay:10.37,2013-02-09 20:26:00,
2013-02-09 20:31:00,37.9,35.5,29.38,North,0,0.0,0.0,91,0.00,,,0.00,WeatherDisplay:10.37,2013-02-09 20:31:00,
2013-02-09 20:36:00,37.9,35.5,29.37,NNE,22,0.0,0.0,91,0.00,,,0.00,WeatherDisplay:10.37,2013-02-09 20:36:00,
2013-02-09 20:41:00,37.9,35.5,29.37,NNE,22,0.0,0.0,91,0.00,,,0.00,WeatherDisplay:10.37,2013-02-09 20:41:00,
2013-02-09 20:46:00,37.9,35.5,29.36,NE,45,2.3,2.3,91,0.00,,,0.00,WeatherDisplay:10.37,2013-02-09 20:46:00,
2013-02-09 20:51:00,37.9,35.5,29.36,ENE,68,3.5,3.5,91,0.00,,,0.00,WeatherDisplay:10.37,2013-02-09 20:51:00,
2013-02-09 20:56:00,37.9,35.5,29.36,ESE,112,4.6,4.8,91,0.00,,,0.00,WeatherDisplay:10.37,2013-02-09 20:56:00,
2013-02-09 21:01:00,37.9,35.5,29.36,ESE,112,1.1,1.1,91,0.00,,,0.00,WeatherDisplay:10.37,2013-02-09 21:01:00,
2013-02-09 21:06:00,37.8,35.4,29.36,ENE,68,2.3,2.3,91,0.00,,,0.00,WeatherDisplay:10.37,2013-02-09 21:06:00,
2013-02-09 21:11:00,37.8,35.4,29.36,NE,45,2.3,2.3,91,0.00,,,0.00,WeatherDisplay:10.37,2013-02-09 21:11:00,
2013-02-09 21:16:00,37.8,35.4,29.36,NE,45,2.3,2.3,91,0.00,,,0.00,WeatherDisplay:10.37,2013-02-09 21:16:00,
2013-02-09 21:21:00,37.6,35.2,29.36,NNE,22,2.3,2.3,91,0.00,,,0.00,WeatherDisplay:10.37,2013-02-09 21:21:00,
2013-02-09 21:26:00,37.6,35.2,29.34,NE,45,3.5,3.5,91,0.00,,,0.00,WeatherDisplay:10.37,2013-02-09 21:26:00,
2013-02-09 21:31:00,37.6,35.2,29.34,ENE,68,1.1,2.8,91,0.00,,,0.00,WeatherDisplay:10.37,2013-02-09 21:31:00,
2013-02-09 21:36:00,37.6,35.2,29.34,NE,45,3.5,3.5,91,0.00,,,0.00,WeatherDisplay:10.37,2013-02-09 21:36:00,
2013-02-09 21:41:00,37.6,35.2,29.34,ESE,112,6.9,7.2,91,0.00,,,0.00,WeatherDisplay:10.37,2013-02-09 21:41:00,
2013-02-09 21:46:00,37.6,35.2,29.33,NE,45,2.3,2.3,91,0.00,,,0.00,WeatherDisplay:10.37,2013-02-09 21:46:00,
2013-02-09 21:51:00,37.4,35.0,29.33,East,90,5.8,5.8,91,0.00,,,0.00,WeatherDisplay:10.37,2013-02-09 21:51:00,
2013-02-09 21:56:00,37.4,35.0,29.33,East,90,3.5,3.5,91,0.00,,,0.00,WeatherDisplay:10.37,2013-02-09 21:56:00,
2013-02-09 22:01:00,37.4,35.0,29.33,North,0,1.1,1.1,91,0.00,,,0.00,WeatherDisplay:10.37,2013-02-09 22:01:00,
2013-02-09 22:06:00,37.4,35.0,29.33,ENE,68,3.5,3.9,91,0.00,,,0.00,WeatherDisplay:10.37,2013-02-09 22:06:00,
2013-02-09 22:11:00,37.4,35.0,29.33,East,90,0.0,0.0,91,0.00,,,0.00,WeatherDisplay:10.37,2013-02-09 22:11:00,
2013-02-09 22:16:00,37.2,34.8,29.32,NE,45,2.3,2.3,91,0.00,,,0.00,WeatherDisplay:10.37,2013-02-09 22:16:00,
2013-02-09 22:21:00,37.4,35.0,29.32,ENE,68,0.0,0.0,91,0.00,,,0.00,WeatherDisplay:10.37,2013-02-09 22:21:00,
2013-02-09 22:26:00,37.2,34.8,29.31,East,90,0.0,0.0,91,0.00,,,0.00,WeatherDisplay:10.37,2013-02-09 22:26:00,
2013-02-09 22:31:00,37.2,34.8,29.31,ENE,68,0.0,1.9,91,0.00,,,0.00,WeatherDisplay:10.37,2013-02-09 22:31:00,
2013-02-09 22:36:00,37.2,34.8,29.31,NNE,22,1.1,1.6,91,0.00,,,0.00,WeatherDisplay:10.37,2013-02-09 22:36:00,
2013-02-09 22:41:00,37.2,34.8,29.31,ENE,68,1.1,1.5,91,0.00,,,0.00,WeatherDisplay:10.37,2013-02-09 22:41:00,
2013-02-09 22:46:00,37.2,34.8,29.31,North,0,2.3,2.3,91,0.00,,,0.00,WeatherDisplay:10.37,2013-02-09 22:46:00,
2013-02-09 22:51:00,37.2,34.8,29.31,East,90,2.3,2.3,91,0.00,,,0.00,WeatherDisplay:10.37,2013-02-09 22:51:00,
2013-02-09 22:56:00,37.2,34.8,29.30,East,90,4.6,4.6,91,0.00,,,0.00,WeatherDisplay:10.37,2013-02-09 22:56:00,
2013-02-09 23:01:00,37.2,34.8,29.30,ESE,112,3.5,3.5,91,0.00,,,0.00,WeatherDisplay:10.37,2013-02-09 23:01:00,
2013-02-09 23:06:00,37.0,34.7,29.30,East,90,4.6,4.6,91,0.00,,,0.00,WeatherDisplay:10.37,2013-02-09 23:06:00,
2013-02-09 23:11:00,37.0,34.7,29.30,NNE,22,3.5,3.5,91,0.00,,,0.00,WeatherDisplay:10.37,2013-02-09 23:11:00,
2013-02-09 23:16:00,37.0,34.7,29.30,ENE,68,4.6,4.6,91,0.00,,,0.00,WeatherDisplay:10.37,2013-02-09 23:16:00,
2013-02-09 23:21:00,36.9,34.5,29.30,NE,45,2.3,2.3,91,0.00,,,0.00,WeatherDisplay:10.37,2013-02-09 23:21:00,
2013-02-09 23:26:00,36.9,34.5,29.28,East,90,1.1,1.1,91,0.00,,,0.00,WeatherDisplay:10.37,2013-02-09 23:26:00,
2013-02-09 23:31:00,36.7,34.3,29.28,East,90,1.1,1.1,91,0.00,,,0.00,WeatherDisplay:10.37,2013-02-09 23:31:00,
2013-02-09 23:36:00,36.7,34.3,29.28,ENE,68,2.3,2.3,91,0.00,,,0.00,WeatherDisplay:10.37,2013-02-09 23:36:00,
2013-02-09 23:41:00,36.7,34.3,29.28,ENE,68,1.1,1.6,91,0.00,,,0.00,WeatherDisplay:10.37,2013-02-09 23:41:00,
2013-02-09 23:46:00,36.7,34.3,29.28,ESE,112,3.5,3.5,91,0.00,,,0.00,WeatherDisplay:10.37,2013-02-09 23:46:00,
2013-02-09 23:51:00,36.7,34.3,29.28,North,0,1.1,1.6,91,0.00,,,0.00,WeatherDisplay:10.37,2013-02-09 23:51:00,
2013-02-09 23:56:00,36.7,34.3,29.28,NE,45,2.3,2.3,91,0.00,,,0.00,WeatherDisplay:10.37,2013-02-09 23:56:00,